Home   Weather   New York   Past weeks
Flag for USA

Past Weather in New York, New York, USA — Yesterday and Last 2 Weeks

Now
59 °F

Sunny.


Feels Like: 58 °F
Forecast: 53 / 42 °F
Wind: 6 mph from North

Location: New York City - Central Park

Current Time: Mar 24, 2019 at 8:07:31 pm

Latest Report: Mar 24, 2019 at 6:51 pm


Visibility: 10 mi

Pressure: 30.02 "Hg

Humidity: 20%

Dew Point: 18 °F

Location of New YorkLocation

Past Weather in New York — Graph

°F

New York Temperature Yesterday

Maximum temperature yesterday: 48 °F (at 4:51 pm)
Minimum temperature yesterday: 35 °F (at 3:51 am)
Average temperature yesterday: 41 °F

High & Low Weather Summary for the Past Weeks

 TemperatureHumidityPressure
High75 °F (Mar 15, 2:51 pm)97% (Mar 10, 10:36 am)30.44 "Hg (Mar 10, 10:36 am)
Low33 °F (Mar 13, 3:51 am)14% (Mar 24, 1:51 pm)29.30 "Hg (Mar 22, 4:51 am)
Average44 °F55%30.04 "Hg
* Reported Mar 10 6:51 am — Mar 24 6:51 pm, New York. Weather by CustomWeather, © 2019

Note: Actual official high and low records may vary slightly from our data, if they occured in-between our weather recording intervals... More about our weather records

Advertising

New York Weather History for the Previous 24 Hours

Scroll right to see more
 ConditionsComfort  
Time TempWeatherWind HumidityBarometerVisibility
6:51 pm
Sun, Mar 24
59 °FSunny.6 mph20%30.02 "Hg10 mi
5:51 pm60 °FSunny.3 mph19%30.01 "Hg10 mi
4:51 pm60 °FSunny.7 mph18%30.01 "Hg10 mi
3:51 pm60 °FSunny.N/A18%30.03 "Hg10 mi
2:51 pm58 °FSunny.5 mph16%30.07 "Hg10 mi
1:51 pm58 °FSunny.N/A14%30.10 "Hg10 mi
12:51 pm55 °FSunny.N/A15%30.13 "Hg10 mi
11:51 am52 °FSunny.5 mph19%30.16 "Hg10 mi
10:51 am47 °FSunny.7 mph24%30.19 "Hg10 mi
9:51 am43 °FSunny.5 mph27%30.19 "Hg10 mi
8:51 am41 °FSunny.No wind30%30.21 "Hg10 mi
7:51 am38 °FSunny.7 mph34%30.20 "Hg10 mi
6:51 am38 °FClear.5 mph34%30.19 "Hg10 mi
5:51 am39 °FClear.5 mph31%30.18 "Hg10 mi
4:51 am39 °FClear.7 mph31%30.17 "Hg10 mi
3:51 am39 °FClear.5 mph30%30.17 "Hg10 mi
2:51 am39 °FClear.No wind30%30.16 "Hg10 mi
1:51 am40 °FClear.8 mph29%30.15 "Hg10 mi
12:51 am41 °FClear.6 mph28%30.14 "Hg10 mi
11:51 pm
Sat, Mar 23
42 °FClear.6 mph27%30.14 "Hg10 mi
10:51 pm42 °FClear.5 mph25%30.13 "Hg10 mi
9:51 pm43 °FClear.5 mph25%30.11 "Hg10 mi
8:51 pm44 °FClear.8 mph25%30.09 "Hg10 mi
Weather by CustomWeather, © 2019

See weather overview